GW0092 Weather Reports


Display with metric or nautical units.
time (UTC)temp
F
wind
direction
speed
MPH
gust
MPH
rain 1hr
in
rain 24hr
in
rain mn
in
humidity
%
barometer
mb
20260506001555 64 162 2.0 7.0 0.00 0.00 0.00 85 1013.5
20260506000051 64 167 2.0 8.0 0.00 0.00 0.00 84 1013.5
20260505234552 64 129 2.0 6.0 0.00 0.00 0.00 84 1013.5
20260505233100 65 145 3.0 9.0 0.00 0.00 0.00 84 1013.3
20260505231609 65 0 2.0 6.0 0.00 0.00 0.00 83 1013.2
20260505230052 65 155 2.0 12.0 0.00 0.00 0.00 82 1013.3
20260505224556 66 147 4.0 9.0 0.00 0.00 0.00 81 1013.3
20260505223052 67 127 2.0 12.0 0.00 0.00 0.00 80 1013.1
20260505221553 67 72 3.0 10.0 0.00 0.00 0.00 78 1013.1
20260505220059 69 237 2.0 6.0 0.00 0.00 0.00 76 1013.1
20260505214558 69 101 3.0 6.0 0.00 0.00 0.00 74 1013.2
20260505213050 70 198 2.0 9.0 0.00 0.00 0.00 74 1013.0
20260505211552 70 46 3.0 9.0 0.00 0.00 0.00 73 1013.2
20260505210058 70 125 2.0 6.0 0.00 0.00 0.00 72 1013.2
20260505204555 71 154 3.0 9.0 0.00 0.00 0.00 72 1013.2
20260505203117 72 133 4.0 11.0 0.00 0.00 0.00 71 1013.4
20260505201603 72 213 2.0 8.0 0.00 0.00 0.00 69 1013.4
20260505200057 72 87 3.0 13.0 0.00 0.00 0.00 71 1013.7
20260505194558 72 341 2.0 9.0 0.00 0.00 0.00 71 1013.7
20260505193053 71 94 3.0 14.0 0.00 0.00 0.00 72 1013.7
20260505191603 71 228 3.0 9.0 0.00 0.00 0.00 72 1013.9
20260505190057 71 164 5.0 12.0 0.00 0.00 0.00 73 1014.0
20260505184557 71 176 2.0 10.0 0.00 0.00 0.00 73 1014.2
20260505183052 71 94 3.0 7.0 0.00 0.00 0.00 74 1014.1
20260505181552 71 127 3.0 7.0 0.00 0.00 0.00 74 1014.3
20260505180057 72 90 3.0 9.0 0.00 0.00 0.00 73 1014.4
20260505174555 71 106 3.0 13.0 0.00 0.00 0.00 74 1014.3
20260505173057 71 69 3.0 10.0 0.00 0.00 0.00 74 1014.3
20260505171556 71 148 3.0 6.0 0.00 0.00 0.00 75 1014.3
20260505170109 71 180 3.0 7.0 0.00 0.00 0.00 74 1014.4
20260505164559 71 176 3.0 9.0 0.00 0.00 0.00 75 1014.4
20260505163053 70 160 3.0 10.0 0.00 0.00 0.00 76 1014.5
20260505161614 72 89 2.0 6.0 0.00 0.00 0.00 73 1014.5
20260505153103 71 151 1.0 5.0 0.00 0.00 0.00 76 1014.7
20260505151603 71 159 1.0 6.0 0.00 0.00 0.00 74 1014.7
20260505124554 63 127 0.0 5.0 0.00 0.00 0.00 82 1014.5
20260505123051 62 139 0.0 4.0 0.00 0.00 0.00 82 1014.4
20260505121613 60 136 1.0 3.0 0.00 0.00 0.00 85 1014.3
20260505120055 59 0 0.0 2.0 0.00 0.00 0.00 88 1014.3
20260505114554 58 144 0.0 2.0 0.00 0.00 0.00 90 1014.4
20260505113053 56 0 0.0 0.0 0.00 0.00 0.00 92 1014.4
20260505111552 56 0 0.0 0.0 0.00 0.00 0.00 93 1014.6
20260505101556 55 0 0.0 0.0 0.00 0.00 0.00 94 1013.9
20260505100059 55 0 0.0 2.0 0.00 0.00 0.00 94 1013.8
20260505094552 55 0 0.0 0.0 0.00 0.00 0.00 95 1013.6
20260505093057 55 0 0.0 0.0 0.00 0.00 0.00 95 1013.6
20260505091554 56 0 0.0 1.0 0.00 0.00 0.00 95 1013.4
20260505090105 55 0 0.0 0.0 0.00 0.00 0.00 95 1013.4
20260505084554 55 0 0.0 0.0 0.00 0.00 0.00 94 1013.4
20260505083100 56 0 0.0 1.0 0.00 0.00 0.00 94 1013.4
20260505081559 56 0 0.0 0.0 0.00 0.00 0.00 93 1013.5
20260505080049 56 0 0.0 1.0 0.00 0.00 0.00 93 1013.5
20260505074552 57 0 0.0 1.0 0.00 0.00 0.00 92 1013.5
20260505073053 57 0 0.0 1.0 0.00 0.00 0.00 93 1013.4
20260505071554 57 114 0.0 1.0 0.00 0.00 0.00 93 1013.4
20260505070051 58 0 0.0 2.0 0.00 0.00 0.00 93 1013.4
20260505064554 58 0 0.0 4.0 0.00 0.00 0.00 93 1013.3
20260505063056 58 129 0.0 1.0 0.00 0.00 0.00 93 1013.5
20260505061600 58 132 0.0 2.0 0.00 0.00 0.00 93 1013.4
20260505060059 58 142 0.0 2.0 0.00 0.00 0.00 94 1013.4
20260505054558 58 0 0.0 0.0 0.00 0.00 0.00 93 1013.5
20260505053107 58 0 0.0 0.0 0.00 0.00 0.00 93 1013.4
20260505051558 58 0 0.0 0.0 0.00 0.00 0.00 93 1013.4
20260505041553 59 158 0.0 2.0 0.00 0.00 0.00 90 1013.5
20260505040056 59 0 1.0 5.0 0.00 0.00 0.00 90 1013.4
20260505034550 59 142 1.0 2.0 0.00 0.00 0.00 90 1013.3
20260505033110 60 157 0.0 8.0 0.00 0.00 0.00 90 1013.3
20260505031556 59 181 1.0 3.0 0.00 0.00 0.00 90 1013.3
20260505030056 60 158 1.0 4.0 0.00 0.00 0.00 89 1013.3
20260505024604 60 127 1.0 11.0 0.00 0.00 0.00 88 1013.3
20260505023103 60 176 2.0 6.0 0.00 0.00 0.00 87 1013.3
20260505021553 60 166 2.0 12.0 0.00 0.00 0.00 87 1013.3
20260505020055 60 169 2.0 4.0 0.00 0.00 0.00 88 1013.4
20260505014552 60 165 1.0 5.0 0.00 0.00 0.00 88 1013.6
20260505013052 59 134 1.0 4.0 0.00 0.00 0.00 88 1013.6
20260505011558 59 150 0.0 2.0 0.00 0.00 0.00 88 1013.5
20260505010058 59 141 1.0 3.0 0.00 0.00 0.00 88 1013.4
20260505004558 59 117 2.0 5.0 0.00 0.00 0.00 89 1013.4
20260505003051 59 152 0.0 2.0 0.00 0.00 0.00 88 1013.3